Starlink 33807

operational
NORAD ID: 63518 Int'l Des: 2025-071 Owner: SPXS Country: US Constellation: starlink
LEOCIRCULAR

About Starlink 33807

Description loading...

Live Position

Loading 3D Globe...

Upcoming Passes

Altitude History

Altitude vs Time

uPlot chart will show altitude changes over time

Two-Line Element Set

1 63518U 25071AB 25257.24094023 .00029975 00000-0 10193-2 0 9991
2 63518 53.1585 241.6844 0003467 98.9645 261.1748 15.30221996 25725
Epoch: Sep 14, 2025 • Age: 26 hours

Current Status

Altitude 495.7 km
Velocity 7.62 km/s
Sub-Earth Point -53.06°S, 24.06°E
Launch Date Apr 7, 2025
Age 0.4 years
Type internet

Technical Details

Classification Payload
Mass 575.00 kg
Dry Mass 530.00 kg
Total Mass 575.00 kg
Length 0.30 m
Diameter 4.10 m
Span 29.00 m
Shape Box + pan
Manufacturer SPXS
Bus Type Starlink V2MO
Phase Status In Orbit
Owner/State SPXS/US

Large Constellations

Loading constellations...